Lid_Strength_Index
14 17 19 18 17 17 17 18 19 17 15 15 16 16 15 14 14 14 14 14 14 14 12 11 10 9 9 8 8 7 7 7 7 7 6 6 5 5 4 3 3 2 2 1
16 18 16 14 15 16 17 18 18 16 15 15 17 16 15 15 14 14 14 15 14 14 13 12 10 9 9 10 9 7 7 7 6 6 5 3 3 4 4 3 2 2 2 1
17 16 14 15 16 16 17 18 18 18 16 16 17 18 17 15 14 14 14 15 14 14 14 13 11 10 10 10 9 8 7 7 7 6 5 4 3 3 3 3 2 2 1 1
17 15 15 16 16 16 17 16 16 16 19 21 17 22 18 17 16 15 15 16 15 15 14 13 11 11 10 10 9 8 8 7 7 7 6 6 7 7 5 5 5 4 5 4
19 17 16 16 16 15 17 15 16 16 18 20 19 22 20 17 17 16 16 16 16 15 15 13 12 11 11 10 9 8 8 8 8 8 6 7 7 7 6 6 6 6 6 6
18 16 16 16 15 15 14 16 16 17 19 23 20 22 21 20 18 16 16 16 16 15 15 13 12 11 11 10 10 9 9 9 8 8 7 8 8 8 8 7 7 7 7 7
19 18 17 16 17 16 17 19 23 25 25 24 20 21 19 17 16 16 17 17 16 15 15 14 13 13 12 11 11 10 9 9 9 9 9 8 8 8 8 8 8 8 9 8
21 22 18 16 18 19 19 20 23 28 27 25 20 22 18 17 16 16 16 17 15 16 16 14 14 14 13 13 12 12 11 10 10 10 10 10 9 9 9 9 9 9 8 9
22 22 18 17 16 17 19 20 19 24 30 26 23 20 18 17 17 17 18 17 16 16 16 14 14 14 14 13 12 12 11 10 10 10 10 10 10 10 11 10 10 10 10 10
19 22 19 18 17 17 19 18 22 23 28 29 25 23 20 19 18 18 18 18 16 16 16 14 14 14 14 13 13 12 11 11 10 10 9 9 10 10 10 11 11 11 11 11
18 19 21 18 19 19 19 20 20 21 23 26 27 23 19 18 17 18 18 17 16 16 16 15 14 14 14 13 13 13 12 12 11 10 10 10 10 10 10 10 10 9 10 10
18 20 22 21 19 18 19 20 19 24 24 23 23 23 17 18 16 16 17 17 15 16 15 15 14 14 14 14 14 14 14 13 12 12 11 11 11 10 11 11 11 10 10 10
17 21 25 23 21 20 20 19 19 20 20 23 24 22 17 18 18 17 17 17 15 16 15 14 14 14 14 14 15 15 15 14 14 13 12 12 12 11 11 12 11 11 11 11
15 20 21 22 22 21 21 20 19 20 23 22 22 21 19 19 19 18 18 17 16 15 15 15 15 14 14 15 15 16 15 15 15 14 14 14 13 12 12 12 12 12 12 12
17 21 20 20 20 19 19 19 19 20 19 21 21 20 18 18 18 17 17 17 16 15 15 15 15 14 14 15 16 16 16 15 15 15 15 15 14 13 13 13 13 13 12 12
18 22 22 24 21 20 20 19 18 18 18 18 19 20 17 16 17 17 17 17 17 16 14 14 14 14 14 14 16 16 16 16 15 15 15 14 14 13 13 13 13 13 13 13
20 23 24 26 24 23 25 22 19 18 18 18 21 17 17 18 17 17 17 17 16 16 14 14 14 13 13 15 15 16 16 16 16 15 15 15 14 14 14 14 14 14 14 13
23 24 26 27 26 27 18 19 19 18 17 17 17 17 16 16 15 15 15 16 16 16 14 13 14 13 14 15 16 16 16 16 16 16 16 15 15 15 14 14 14 14 13 13
19 21 28 26 31 22 18 20 20 20 19 17 16 15 16 16 16 17 14 14 15 15 14 13 13 13 14 16 16 16 16 16 16 16 16 16 15 15 15 15 14 14 13 13
19 20 22 33 29 28 20 19 18 18 21 18 16 15 17 16 18 16 14 14 15 15 14 13 13 15 15 16 16 16 16 16 16 16 16 16 15 16 16 15 15 13 13 13
25 26 26 30 29 24 18 18 18 22 18 18 18 16 16 15 14 15 14 14 15 15 14 13 13 15 15 16 16 16 16 16 16 16 16 17 17 16 16 15 14 13 13 13
23 24 29 30 30 25 18 18 19 17 18 17 18 16 15 15 15 15 14 15 16 16 15 14 14 14 16 16 15 16 17 17 17 17 18 19 18 17 16 17 15 14 14 14
21 20 22 21 20 17 16 17 16 16 17 17 16 15 14 15 16 15 15 16 16 16 15 14 14 15 17 17 16 16 17 17 18 19 21 21 20 18 17 17 16 15 13 14
20 19 21 20 18 18 17 16 16 16 15 14 15 15 15 15 15 16 16 16 16 16 16 15 16 16 17 18 18 17 18 18 20 20 21 21 21 20 19 18 17 15 14 14
20 18 20 20 18 17 16 16 15 15 15 15 15 15 15 15 16 15 16 15 15 16 16 16 16 16 17 18 19 19 19 19 19 20 21 21 21 22 21 20 18 16 14 12
20 20 18 18 16 15 14 14 14 15 15 14 15 16 15 15 15 15 15 15 15 16 16 16 17 17 18 18 20 20 20 19 19 21 21 22 22 22 22 21 20 14 13 13